Regional Weather Roundup
Issued by NWS Kansas City/Pleasant Hill, MO

Home | Current Version | Previous Version | Text Only | Print | Product List | Glossary On
Versions: 1 2 3 4 5 6 7 8 9 10 11 12 13 14 15 16 17 18 19 20 21 22 23 24 25 26 27 28 29 30 31 32 33 34 35 36 37 38 39 40 41 42 43 44 45 46 47 48 49 50
641
ASUS43 KEAX 310610
RWREAX

WEATHER ROUNDUP FOR EASTERN KANSAS AND NORTHWEST MISSOURI
NATIONAL WEATHER SERVICE KANSAS CITY/PLEASANT HILL MO
100 AM CDT TUE MAY 31 2016

KSZ040-057-103>105-MOZ028-029-037-043-310700-
...KANSAS CITY METROPOLITAN AREA...

CITY           SKY/WX    TMP DP  RH WIND       PRES   REMARKS
K.C. INTL      CLEAR     60  57  89 S6        29.96S
6HR MIN TEMP:  60; 6HR MAX TEMP:  74;

K.C. DOWNTOWN  CLEAR     65  59  81 S7        29.97R
6HR MIN TEMP:  65; 6HR MAX TEMP:  77;

LEES SUMMIT    CLEAR     64  60  87 SW7       29.98S
6HR MIN TEMP:  64; 6HR MAX TEMP:  74;

OLATHE - IXD   CLEAR     61  60  97 S6        29.98S
6HR MIN TEMP:  61; 6HR MAX TEMP:  75;

OLATHE - OJC   CLEAR     60  59  96 S5        29.98R
6HR MIN TEMP:  60; 6HR MAX TEMP:  73;

LAWRENCE       CLEAR     62  60  93 SE5       29.96F

$$

MOZ001>008-011>017-020>025-030>033-038>040-044>046-053-054-310700-
...NORTHERN AND CENTRAL MISSOURI...

CITY           SKY/WX    TMP DP  RH WIND       PRES   REMARKS
ST. JOSEPH     CLEAR     64  60  87 S7        29.94F
6HR MIN TEMP:  64; 6HR MAX TEMP:  77; 6HR PCP: TRACE;

MOSBY          CLEAR     63  59  88 CALM      29.97F
WARRENSBURG    CLEAR     61  59  94 E3        29.98R
WHITEMAN AFB   NOT AVBL
CLINTON        CLOUDY    63  63 100 CALM      29.98R
SEDALIA        MOCLDY    65  62  90 CALM      29.99R
6HR MIN TEMP:  64; 6HR MAX TEMP:  68; 6HR PCP: TRACE;

WARSAW         NOT AVBL
CHILLICOTHE      N/A     62  59  90 CALM      29.99R
6HR MIN TEMP:  62; 6HR MAX TEMP:  72;

KIRKSVILLE     MOCLDY    62  60  93 CALM      29.99R
6HR MIN TEMP:  61; 6HR MAX TEMP:  77; 6HR PCP: TRACE;


$$

MOZ041-047>049-056>058-063>065-088>090-097-310700-
...EASTERN AND SOUTHERN MISSOURI...

CITY           SKY/WX    TMP DP  RH WIND       PRES   REMARKS
ST. LOUIS INTL CLOUDY    72  62  71 CALM      29.98F
6HR MIN TEMP:  71; 6HR MAX TEMP:  80;

SPIRIT OF STL  MOCLDY    66  65  96 CALM      29.96F
COLUMBIA       PTCLDY    64  62  93 CALM      29.99R
JEFFERSON CITY PTCLDY    67  62  84 CALM      29.98R
ROLLA          CLOUDY    64  61  90 SE3       29.97S
SPRINGFIELD    CLOUDY    66  61  84 S8        29.97F
JOPLIN         CLOUDY    66  64  93 SE7       29.97R
WEST PLAINS    CLOUDY    66  60  81 S5        30.01S

$$

IAZ060-094-KSZ022-034>040-054-083-096-NEZ052-066-093-310700-
...KANSAS...SOUTHEAST NEBRASKA AND IOWA...

CITY           SKY/WX    TMP DP  RH WIND       PRES   REMARKS
TOPEKA         CLEAR     66  61  84 S7        29.95F
6HR MIN TEMP:  66; 6HR MAX TEMP:  79;

MANHATTAN      CLOUDY    67  61  81 S7        29.95R
EMPORIA        CLEAR     62  60  93 S7        29.96F
CHANUTE        CLOUDY    66  62  87 SE5       29.95F
WICHITA        CLOUDY    66  62  87 SE8       29.93F
OMAHA          CLOUDY    69  62  78 S14       29.88F
LINCOLN        CLOUDY    71  61  70 S12       29.88F
FALLS CITY     LGT RAIN  68  61  78 S8        29.92F
LAMONI         PTCLDY    63  59  87 S10       29.96R
DES MOINES     CLOUDY    69  57  65 SE6       29.93F

$$





USA.gov is the U.S. government's official web portal to all federal, state and local government web resources and services.